Terug naar catalogus

ATLAS 5 CENTAUR DEB

LostHEO
NORAD 46603·DEBRIS·🇺🇸 United States

Gelanceerd Oct 17, 2018 vanaf Cape Canaveral Space Force Station

Loading…

Volgende Passages (komende 24 uur)

TLE

VerouderdSource: Space-Track

Epoch: Aug 10, 2023, 01:08 UTC

1 46603U 18079CB  23222.04730284 -.00000051  00000-0  00000+0 0  9999
2 46603  11.2931 126.8393 4671449 117.6650 296.8190  1.75099922 20855

Volg ATLAS 5 CENTAUR DEB in realtime met AllMySat

Download on the App Store